{"data":{"norad_id":57769,"epoch":"2026-09-22T13:22:17.105088Z","epoch_age_seconds":128378,"freshness":"FRESH","line1":"1 57769U 23133N   26265.55714242 -.00000044  00000+0 -47939-4 0  9992","line2":"2 57769  80.9999 274.3409 0007379 107.3061 252.8904 13.85850092154510","mean_motion":13.85850092,"eccentricity":0.0007379,"inclination_deg":80.9999,"raan_deg":274.3409,"arg_perigee_deg":107.3061,"mean_anomaly_deg":252.8904,"bstar":-4.7939e-5,"rev_number":15451,"period_min":103.90734238231,"perigee_km":937.80780796817,"apogee_km":948.61265221034,"semimajor_km":7321.3472300893,"source":"CELESTRAK","updated_at":"2026-09-23T09:00:18.340263Z"}}